Location: Caltech
(34.1382°N, 118.1253°W)
Time: 22:23:19
(UTC-08:00)

Courier 1B - Visible Passes

Search period start: 29 January 2015 00:00
Search period end: 08 February 2015 00:00
Orbit: 963 x 1209 km, 28.3° (Epoch: 28 January)

Date Brightness Start Highest point End Pass type
(mag) Time Alt. Az. Time Alt. Az. Time Alt. Az.
29 Jan 8.6 17:47:59 10° SW 17:53:56 35° SSE 18:00:15 10° E visible
29 Jan 8.0 19:40:58 10° WSW 19:47:38 54° S 19:47:44 54° S visible
30 Jan 8.1 18:47:27 10° WSW 18:53:56 50° S 18:57:23 28° ESE visible
30 Jan 9.2 20:41:03 10° W 20:44:18 29° WSW 20:44:18 29° WSW visible
31 Jan 8.3 17:54:01 10° WSW 18:00:16 45° SSE 18:06:52 10° E visible
31 Jan 8.0 19:47:25 10° WSW 19:53:58 54° S 19:53:58 54° S visible
01 Feb 8.0 18:53:51 10° WSW 19:00:20 54° S 19:03:39 30° ESE visible
01 Feb 9.4 20:47:40 10° W 20:50:33 25° WSW 20:50:33 25° WSW visible
02 Feb 8.1 18:00:19 10° WSW 18:06:39 52° S 18:13:20 10° E visible
02 Feb 8.2 19:54:00 10° W 20:00:15 47° SSW 20:00:15 47° SSW visible
03 Feb 8.1 19:00:22 10° W 19:06:45 51° S 19:10:00 29° SE visible
03 Feb 9.6 20:54:28 10° W 20:56:54 21° WSW 20:56:54 21° WSW visible
04 Feb 8.1 18:06:46 10° WSW 18:13:05 52° S 18:19:43 10° ESE visible
04 Feb 8.5 20:00:41 10° W 20:06:41 37° SSW 20:06:41 37° SSW visible
05 Feb 8.4 19:06:58 10° W 19:13:09 42° SSW 19:16:30 25° SE visible
05 Feb 9.9 21:01:42 10° WSW 21:03:25 15° WSW 21:03:25 15° WSW visible
06 Feb 8.3 18:13:19 10° W 18:19:31 47° S 18:25:58 10° ESE visible
06 Feb 9.0 20:07:40 10° WSW 20:13:06 26° SSW 20:13:18 26° SSW visible
07 Feb 8.9 19:13:46 10° W 19:19:30 31° SSW 19:23:15 19° SSE visible
